Flag for Finland Weather past 2 weeks in Mariehamn, Finland

Now
61 °F

Fog.


Feels Like: 61 °F
Forecast: 59 / 67 °F
Wind: 6 mph from South

Location: Mariehamn / Aland Island

Current Time: Jul 6, 2015 at 11:42:55 PM

Latest Report: Jul 6, 2015 at 11:20 PM


Visibility: 1 mi

Pressure: 29.59 "Hg

Humidity: 100%

Dew point: 61 °F

Location of MariehamnLocation

Historic Weather in Mariehamn — Graph

°F

Mariehamn temperature yesterday

Maximum temperature yesterday: 72 °F (at 2:20 PM)
Minimum temperature yesterday: 55 °F (at 12:20 AM)
Average temperature yesterday: 65 °F

Past Weeks' High & Low Weather Summary

 TemperatureHumidityPressure
High77 °F (Jul 2, 3:50 PM)100% (Jun 22, 2:20 AM)30.33 "Hg (Jun 22, 2:20 AM)
Low45 °F (Jun 23, 4:50 AM)33% (Jul 1, 2:50 PM)29.59 "Hg (Jun 24, 7:50 AM)
Average61 °F78%29.95 "Hg
* Reported Jun 21 10:20 PM — Jul 6 10:20 PM, Mariehamn, Weather by CustomWeather, © 2015

Note: Actual official high and low records may vary slightly from our data, if they occured in-between our weather recording intervals... More about our weather records

Advertising

Mariehamn weather history for previous 24 hours

 ConditionsComfort  
Time TempWeatherWind HumidityBarometerVisibility
10:20 PM
Mon, Jul 6
63 °FBroken clouds.7 mph94%29.59 "HgN/A
9:50 PM63 °FLight rain. Mostly cloudy.9 mph94%29.62 "HgN/A
9:20 PM61 °FLight rain. Low clouds.14 mph100%29.62 "Hg5 mi
8:50 PM61 °FRain. Low clouds.13 mph100%29.62 "Hg6 mi
8:20 PM61 °FHeavy rain. Low clouds.12 mph94%29.65 "Hg2 mi
7:50 PM61 °FLight rain. Low clouds.14 mph94%29.65 "Hg3 mi
7:20 PM61 °FLight rain. Low clouds.14 mph94%29.65 "HgN/A
6:50 PM61 °FLight rain. Low clouds.14 mph94%29.68 "HgN/A
6:20 PM61 °FRain. Overcast.10 mph94%29.71 "HgN/A
5:50 PM61 °FLight rain. Overcast.12 mph94%29.71 "HgN/A
5:20 PM63 °FRain. Overcast.15 mph88%29.74 "HgN/A
4:50 PM63 °FLight rain. Overcast.12 mph88%29.74 "HgN/A
4:20 PM63 °FRain. Overcast.8 mph88%29.74 "HgN/A
3:50 PM64 °FLight rain. Partly sunny.9 mph83%29.77 "HgN/A
3:32 PM64 °FLight rain. Partly sunny.12 mph83%29.77 "HgN/A
2:50 PM64 °FLight rain. Overcast.10 mph88%29.77 "HgN/A
2:20 PM64 °FLight rain. Overcast.8 mph83%29.80 "HgN/A
1:50 PM66 °FLight rain. Partly sunny.8 mph78%29.80 "HgN/A
1:20 PM68 °FPassing clouds.9 mph69%29.83 "HgN/A
12:50 PM68 °FPassing clouds.8 mph60%29.83 "HgN/A
12:20 PM68 °FPassing clouds.8 mph53%29.86 "HgN/A
11:50 AM68 °FPassing clouds.9 mph56%29.86 "HgN/A
11:20 AM68 °FSunny.N/A64%29.86 "Hg10 mi
10:50 AM70 °FSunny.N/A57%29.89 "Hg10 mi
10:29 AM72 °FSunny.N/A53%29.89 "Hg10 mi
10:20 AM70 °FSunny.N/A57%29.89 "Hg10 mi
9:50 AM70 °FSunny.N/A57%29.89 "Hg10 mi
9:37 AM70 °FSunny.N/A57%29.89 "Hg10 mi
9:20 AM68 °FPassing clouds.6 mph69%29.92 "HgN/A
8:50 AM68 °FPassing clouds.5 mph69%29.92 "HgN/A
8:20 AM66 °FPassing clouds.6 mph73%29.92 "HgN/A
7:50 AM64 °FSunny.3 mph78%29.95 "Hg10 mi
7:20 AM64 °FPassing clouds.6 mph73%29.95 "HgN/A
6:20 AM61 °FPassing clouds.5 mph83%29.98 "HgN/A
5:59 AM61 °FSunny.2 mph83%29.98 "Hg10 mi
5:20 AM59 °FOvercast.3 mph88%29.98 "HgN/A
4:50 AM57 °FPassing clouds.2 mph88%29.98 "HgN/A
4:20 AM57 °FOvercast.2 mph88%30.01 "HgN/A
3:50 AM55 °FClear.3 mph94%30.01 "Hg10 mi
3:20 AM52 °FClear.2 mph94%30.01 "Hg10 mi
2:50 AM57 °FClear.2 mph88%30.04 "Hg10 mi
2:20 AM55 °FClear.5 mph94%30.04 "Hg10 mi
1:50 AM57 °FClear.2 mph88%30.04 "Hg10 mi
1:20 AM57 °FClear.3 mph88%30.04 "Hg10 mi
12:50 AM57 °FClear.3 mph94%30.04 "Hg10 mi
12:20 AM57 °FClear.1 mph88%30.04 "Hg10 mi
11:50 PM
Sun, Jul 5
59 °FSunny.1 mph82%30.07 "Hg10 mi
11:20 PM59 °FSunny.3 mph82%30.07 "Hg10 mi
Weather by CustomWeather, © 2015

See weather overviewHow to use our weather pages